DW5222 Weather Reports


Display with metric or nautical units.
time (UTC)temp
F
wind
direction
speed
MPH
gust
MPH
rain 1hr
in
rain 24hr
in
rain mn
in
humidity
%
barometer
mb
20200219072205 42 248 10.0 21.0 0.00 0.00 0.00 66 1018.4
20200219071705 42 225 9.0 19.0 0.00 0.00 0.00 67 1018.6
20200219071205 42 239 10.0 20.0 0.00 0.00 0.00 67 1018.7
20200219070705 42 254 10.0 20.0 0.00 0.00 0.00 67 1018.7
20200219070205 42 0 9.0 22.0 0.00 0.00 0.00 67 1018.7
20200219065705 42 0 9.0 22.0 0.00 0.00 0.00 67 1018.6
20200219065205 42 214 11.0 22.0 0.00 0.00 0.00 67 1018.6
20200219064705 41 259 11.0 21.0 0.00 0.00 0.00 68 1018.6
20200219064205 41 238 11.0 23.0 0.00 0.00 0.00 69 1018.6
20200219063705 41 0 11.0 24.0 0.00 0.00 0.00 70 1018.6
20200219063205 41 0 13.0 24.0 0.00 0.00 0.00 71 1018.7
20200219062705 42 210 12.0 24.0 0.00 0.00 0.00 68 1018.8
20200219062205 42 0 11.0 23.0 0.00 0.00 0.00 64 1018.9
20200219061705 42 230 10.0 23.0 0.00 0.00 0.00 62 1018.8
20200219061205 42 0 10.0 23.0 0.00 0.00 0.00 60 1018.7
20200219060705 42 0 9.0 17.0 0.00 0.00 0.00 60 1018.8
20200219060205 42 251 7.0 16.0 0.00 0.00 0.00 58 1018.8
20200219055705 42 213 6.0 13.0 0.00 0.00 0.00 59 1018.8
20200219055205 42 233 6.0 11.0 0.00 0.00 0.00 59 1018.8
20200219054705 42 0 5.0 10.0 0.00 0.00 0.00 59 1018.8
20200219054206 41 225 4.0 11.0 0.00 0.00 0.00 60 1018.9
20200219053705 41 0 5.0 11.0 0.00 0.00 0.00 60 1019.0
20200219053205 41 190 5.0 11.0 0.00 0.00 0.00 60 1019.0
20200219052705 41 0 4.0 10.0 0.00 0.00 0.00 60 1019.0
20200219052205 41 205 3.0 12.0 0.00 0.00 0.00 60 1019.1
20200219051705 42 0 3.0 13.0 0.00 0.00 0.00 60 1019.1
20200219051206 42 241 4.0 13.0 0.00 0.00 0.00 59 1019.3
20200219050705 42 236 5.0 13.0 0.00 0.00 0.00 59 1019.3
20200219050205 42 245 5.0 10.0 0.00 0.00 0.00 60 1019.5
20200219045705 42 251 4.0 11.0 0.00 0.00 0.00 60 1019.5
20200219045205 42 250 4.0 11.0 0.00 0.00 0.00 60 1019.6
20200219044705 42 252 5.0 11.0 0.00 0.00 0.00 60 1019.7
20200219044205 42 219 4.0 10.0 0.00 0.00 0.00 60 1019.8
20200219043705 42 219 3.0 10.0 0.00 0.00 0.00 60 1019.8
20200219043205 42 227 3.0 10.0 0.00 0.00 0.00 60 1019.9
20200219042705 42 252 4.0 14.0 0.00 0.00 0.00 60 1020.0
20200219042206 42 241 5.0 14.0 0.00 0.00 0.00 60 1020.0
20200219041705 42 234 5.0 14.0 0.00 0.00 0.00 60 1020.0
20200219041205 42 221 4.0 12.0 0.00 0.00 0.00 61 1020.1
20200219040705 42 240 5.0 12.0 0.00 0.00 0.00 60 1020.1
20200219040205 41 232 5.0 11.0 0.00 0.00 0.00 61 1020.1
20200219035705 41 239 5.0 11.0 0.00 0.00 0.00 61 1020.2
20200219035206 41 238 5.0 11.0 0.00 0.00 0.00 62 1020.2
20200219034705 41 267 4.0 11.0 0.00 0.00 0.00 62 1020.2
20200219034205 41 217 4.0 12.0 0.00 0.00 0.00 62 1020.2
20200219033705 41 237 5.0 12.0 0.00 0.00 0.00 62 1020.3
20200219033206 41 244 5.0 13.0 0.00 0.00 0.00 61 1020.3
20200219032705 41 231 6.0 13.0 0.00 0.00 0.00 61 1020.4
20200219032205 41 223 5.0 13.0 0.00 0.00 0.00 62 1020.5
20200219031705 41 236 4.0 10.0 0.00 0.00 0.00 62 1020.6
20200219031204 41 248 3.0 9.0 0.00 0.00 0.00 64 1020.7
20200219030705 40 234 3.0 9.0 0.00 0.00 0.00 64 1020.9
20200219030205 40 0 3.0 9.0 0.00 0.00 0.00 65 1020.9
20200219025705 40 212 3.0 9.0 0.00 0.00 0.00 65 1021.0
20200219025205 40 271 4.0 10.0 0.00 0.00 0.00 65 1021.0
20200219024704 40 0 4.0 10.0 0.00 0.00 0.00 65 1021.0
20200219012205 40 228 5.0 12.0 0.00 0.00 0.00 67 1022.6
20200219011705 40 217 5.0 12.0 0.00 0.00 0.00 67 1022.6
20200219011205 40 0 5.0 12.0 0.00 0.00 0.00 67 1022.7
20200219010706 40 223 4.0 12.0 0.00 0.00 0.00 66 1022.8
20200219010205 40 230 4.0 12.0 0.00 0.00 0.00 66 1022.9
20200219005705 40 213 4.0 9.0 0.00 0.00 0.00 66 1022.9
20200219005205 40 216 4.0 8.0 0.00 0.00 0.00 66 1022.9
20200219004705 40 0 3.0 7.0 0.00 0.00 0.00 66 1023.1
20200219004205 40 234 3.0 9.0 0.00 0.00 0.00 65 1023.1
20200219003705 41 0 3.0 9.0 0.00 0.00 0.00 65 1023.1
20200219003205 41 213 3.0 10.0 0.00 0.00 0.00 65 1023.2
20200219002705 40 246 4.0 10.0 0.00 0.00 0.00 65 1023.4
20200219002205 40 234 4.0 10.0 0.00 0.00 0.00 65 1023.4
20200219001705 40 240 4.0 9.0 0.00 0.00 0.00 66 1023.5
20200219001205 40 239 4.0 9.0 0.00 0.00 0.00 67 1023.5
20200219000705 40 223 4.0 10.0 0.00 0.00 0.00 67 1023.5
20200219000205 40 213 4.0 10.0 0.00 0.00 0.00 67 1023.5
20200218235705 40 248 4.0 10.0 0.00 0.00 0.00 67 1023.6
20200218235205 40 216 4.0 9.0 0.00 0.00 0.00 68 1023.7
20200218234705 40 228 4.0 9.0 0.00 0.00 0.00 68 1023.6
20200218200704 41 238 3.0 9.0 0.00 0.00 0.00 67 1025.9
20200218200204 40 205 3.0 7.0 0.00 0.00 0.00 68 1025.9
20200218195705 40 248 3.0 7.0 0.00 0.00 0.00 68 1026.1
20200218195206 40 0 2.0 5.0 0.00 0.00 0.00 68 1026.1
20200218194705 40 256 1.0 5.0 0.00 0.00 0.00 68 1026.1
20200218194205 40 215 1.0 8.0 0.00 0.00 0.00 67 1026.2
20200218193705 40 0 2.0 8.0 0.00 0.00 0.00 67 1026.2
20200218193205 40 0 3.0 8.0 0.00 0.00 0.00 67 1026.1
20200218192705 40 0 2.0 8.0 0.00 0.00 0.00 66 1026.1
20200218192205 40 0 2.0 8.0 0.00 0.00 0.00 66 1026.0
20200218191705 40 243 3.0 8.0 0.00 0.00 0.00 66 1026.1
20200218191205 40 238 2.0 7.0 0.00 0.00 0.00 66 1026.1
20200218190705 40 248 2.0 7.0 0.00 0.00 0.00 66 1026.1
20200218190205 40 238 2.0 8.0 0.00 0.00 0.00 66 1026.2
20200218185705 40 219 2.0 8.0 0.00 0.00 0.00 66 1026.2
20200218185204 40 0 3.0 6.0 0.00 0.00 0.00 67 1026.2
20200218184705 40 0 2.0 6.0 0.00 0.00 0.00 66 1026.2
20200218184205 40 0 2.0 6.0 0.00 0.00 0.00 66 1026.2
20200218183705 40 238 2.0 6.0 0.00 0.00 0.00 66 1026.1
20200218183204 40 0 2.0 6.0 0.00 0.00 0.00 66 1026.1
20200218182705 40 0 2.0 6.0 0.00 0.00 0.00 66 1026.2
20200218182205 41 249 2.0 5.0 0.00 0.00 0.00 65 1026.2
20200218181705 41 0 1.0 3.0 0.00 0.00 0.00 65 1026.1
20200218181205 41 245 1.0 3.0 0.00 0.00 0.00 65 1026.2
20200218180705 41 0 1.0 5.0 0.00 0.00 0.00 65 1026.2
20200218180205 41 242 1.0 5.0 0.00 0.01 0.00 65 1026.2
20200218175705 41 244 2.0 5.0 0.00 0.01 0.00 65 1026.2
20200218175205 41 243 2.0 5.0 0.00 0.01 0.00 65 1026.2
20200218174705 42 0 2.0 6.0 0.00 0.01 0.00 64 1026.1
20200218174205 42 0 2.0 7.0 0.00 0.01 0.00 64 1026.1
20200218173705 42 0 2.0 7.0 0.00 0.01 0.00 63 1026.1
20200218173205 42 0 2.0 7.0 0.00 0.01 0.00 63 1026.1
20200218172705 42 252 2.0 7.0 0.00 0.01 0.00 63 1026.1
20200218172205 43 273 2.0 8.0 0.00 0.01 0.00 62 1026.1
20200218171705 43 0 3.0 8.0 0.00 0.01 0.00 62 1026.0
20200218171205 43 235 4.0 8.0 0.00 0.01 0.00 62 1026.0
20200218170705 43 0 3.0 8.0 0.00 0.01 0.00 62 1025.9
20200218170205 43 236 3.0 8.0 0.00 0.01 0.00 61 1025.9
20200218165705 44 0 3.0 12.0 0.00 0.01 0.00 60 1025.8
20200218165205 44 0 4.0 12.0 0.00 0.01 0.00 59 1025.7
20200218164705 44 251 4.0 12.0 0.00 0.01 0.00 59 1025.7
20200218164205 44 0 6.0 12.0 0.00 0.01 0.00 58 1025.7
20200218163705 44 0 6.0 13.0 0.00 0.01 0.00 58 1025.6
20200218163205 45 0 5.0 13.0 0.00 0.01 0.00 58 1025.6
20200218162705 45 242 6.0 16.0 0.00 0.01 0.00 58 1025.6
20200218162205 45 0 8.0 16.0 0.00 0.01 0.00 57 1025.6
20200218161704 45 246 6.0 15.0 0.00 0.02 0.00 57 1025.6
20200218143706 46 250 8.0 17.0 0.00 0.03 0.00 56 1026.0
20200218143205 46 226 7.0 17.0 0.00 0.03 0.00 57 1026.0
20200218142705 46 275 6.0 13.0 0.00 0.03 0.00 56 1026.0
20200218142205 46 252 6.0 20.0 0.00 0.03 0.00 58 1026.0
20200218141705 46 239 8.0 20.0 0.00 0.03 0.00 58 1026.1
20200218141205 46 254 8.0 16.0 0.00 0.03 0.00 57 1026.2
20200218140705 46 260 6.0 16.0 0.00 0.03 0.00 58 1026.2
20200218140204 46 277 7.0 16.0 0.00 0.03 0.00 58 1026.2
20200218135705 46 216 7.0 16.0 0.00 0.03 0.00 58 1026.3
20200218135205 46 233 6.0 16.0 0.00 0.03 0.00 58 1026.4
20200218134705 46 250 6.0 18.0 0.00 0.03 0.00 59 1026.3
20200218134204 46 236 7.0 18.0 0.00 0.03 0.00 57 1026.4
20200218133705 46 288 8.0 20.0 0.00 0.03 0.00 57 1026.6
20200218133205 46 302 9.0 20.0 0.00 0.03 0.00 57 1026.6
20200218132704 45 257 9.0 18.0 0.00 0.03 0.00 57 1026.6
20200218132205 45 225 7.0 18.0 0.00 0.03 0.00 57 1026.6
20200218131705 45 242 8.0 15.0 0.00 0.03 0.00 57 1026.7
20200218131205 46 275 8.0 15.0 0.00 0.03 0.00 56 1026.8
20200218130705 46 250 7.0 20.0 0.00 0.03 0.00 57 1026.8
20200218130205 46 247 8.0 20.0 0.00 0.03 0.00 57 1026.8
20200218125726 46 217 9.0 19.0 0.00 0.03 0.00 56 1026.9
20200218125205 46 253 9.0 19.0 0.00 0.03 0.00 58 1026.8
20200218124706 45 236 10.0 20.0 0.00 0.03 0.00 58 1026.8
20200218124205 45 286 9.0 20.0 0.00 0.03 0.00 58 1026.9
20200218123708 45 256 10.0 20.0 0.00 0.03 0.00 58 1026.9
20200218123205 45 0 9.0 18.0 0.00 0.03 0.00 57 1026.9
20200218122705 45 0 8.0 17.0 0.00 0.03 0.00 59 1027.0
20200218122205 45 0 7.0 18.0 0.00 0.03 0.00 60 1027.0
20200218121705 45 0 8.0 20.0 0.00 0.03 0.00 59 1027.0
20200218121206 45 262 8.0 20.0 0.00 0.03 0.00 59 1026.9
20200218120707 46 268 8.0 20.0 0.00 0.03 0.00 60 1027.0
20200218120205 46 0 9.0 26.0 0.00 0.03 0.00 59 1027.1
20200218115705 46 0 11.0 26.0 0.00 0.03 0.00 59 1027.0
20200218115205 46 218 11.0 26.0 0.00 0.03 0.00 59 1026.9
20200218114704 46 217 10.0 22.0 0.00 0.03 0.00 58 1027.1
20200218114205 45 0 9.0 22.0 0.00 0.03 0.00 59 1027.0
20200218113704 45 263 9.0 22.0 0.00 0.03 0.00 59 1027.1
20200218113205 45 0 8.0 22.0 0.00 0.03 0.00 60 1027.1
20200218112705 45 229 9.0 22.0 0.00 0.03 0.00 60 1027.4
20200218112205 45 0 11.0 22.0 0.00 0.03 0.00 59 1027.3
20200218111705 45 211 11.0 22.0 0.00 0.03 0.00 59 1027.4
20200218111205 46 258 9.0 22.0 0.00 0.03 0.00 58 1027.4
20200218110705 46 221 8.0 22.0 0.00 0.03 0.00 60 1027.1
20200218110205 45 0 9.0 22.0 0.00 0.03 0.00 61 1027.3
20200218105705 45 0 4.0 22.0 0.00 0.03 0.00 60 1027.3
20200218105205 45 0 0.0 14.0 0.00 0.03 0.00 62 1027.5
20200218104705 45 281 1.0 17.0 0.00 0.03 0.00 62 1027.4
20200218104204 44 232 4.0 18.0 0.00 0.03 0.00 61 1027.5
20200218103704 44 306 6.0 21.0 0.00 0.03 0.00 61 1027.6
20200218103205 45 0 4.0 21.0 0.00 0.03 0.00 61 1027.5
20200218102705 45 292 6.0 21.0 0.00 0.03 0.00 59 1027.6
20200218102205 45 0 9.0 20.0 0.00 0.03 0.00 58 1027.5
20200218101706 46 225 9.0 23.0 0.00 0.03 0.00 59 1027.4
20200218101205 45 0 8.0 23.0 0.00 0.03 0.00 60 1027.5
20200218100705 46 0 9.0 23.0 0.00 0.03 0.00 59 1027.5
20200218100205 45 0 10.0 22.0 0.00 0.03 0.00 58 1027.4
20200218095704 45 219 10.0 22.0 0.00 0.03 0.00 62 1027.6
20200218095205 45 0 9.0 22.0 0.00 0.03 0.00 60 1027.6
20200218094704 45 0 9.0 17.0 0.00 0.03 0.00 62 1027.7
20200218094205 45 259 9.0 21.0 0.00 0.03 0.00 61 1027.5
20200218093705 45 229 10.0 21.0 0.00 0.03 0.00 62 1027.6
20200218093206 45 279 10.0 20.0 0.00 0.03 0.00 61 1027.5
20200218092705 45 0 9.0 20.0 0.00 0.03 0.00 60 1027.6
20200218092205 45 256 9.0 20.0 0.00 0.03 0.00 63 1027.5
20200218091705 45 0 10.0 21.0 0.00 0.03 0.00 63 1027.6
20200218091205 44 293 10.0 23.0 0.00 0.03 0.00 62 1027.5
20200218090706 44 246 9.0 23.0 0.00 0.03 0.00 63 1027.5
20200218090205 44 226 7.0 20.0 0.00 0.03 0.00 64 1027.5
20200218085705 44 0 6.0 20.0 0.00 0.03 0.00 64 1027.5
20200218085205 44 0 8.0 21.0 0.00 0.03 0.00 65 1027.5
20200218084705 44 0 9.0 21.0 0.00 0.03 0.00 65 1027.5
20200218084204 44 241 10.0 23.0 0.00 0.03 0.00 66 1027.3
20200218083705 44 0 11.0 23.0 0.00 0.03 0.00 66 1027.4
20200218083205 44 253 11.0 23.0 0.00 0.03 0.00 66 1027.1
20200218082705 44 243 10.0 23.0 0.00 0.03 0.00 67 1027.4
20200218082205 44 263 10.0 23.0 0.00 0.03 0.00 68 1027.4
20200218081705 44 218 10.0 23.0 0.00 0.03 0.00 68 1027.3
20200218081205 44 251 10.0 23.0 0.00 0.03 0.00 68 1027.1
20200218080704 44 245 9.0 20.0 0.00 0.03 0.00 68 1027.1
20200218080205 44 248 9.0 19.0 0.00 0.03 0.00 68 1026.9
20200218075704 43 252 9.0 16.0 0.00 0.03 0.00 68 1027.0
20200218075205 43 242 7.0 22.0 0.00 0.03 0.00 68 1026.9
20200218074705 43 229 7.0 22.0 0.00 0.03 0.00 69 1026.9
20200218074205 43 257 8.0 22.0 0.00 0.03 0.00 68 1026.9
20200218073705 42 249 7.0 16.0 0.00 0.03 0.00 68 1026.9
20200218073205 42 236 7.0 16.0 0.00 0.03 0.00 68 1026.8
20200218072705 42 248 8.0 16.0 0.00 0.03 0.00 68 1026.8